Vertical_Velocity
-2 -2 -3 1 -1 1 -2 3 5 3 3 7 4 6 5 3 3 0 4 2 1 1 3 4 5 2 1 4 2 -0 -0 -0 -1 -1 -1 0 -0 -1 1 1 -1 -4 -1 0 -1 -2 -2 -2 -2
-1 -3 -1 -1 -2 -0 1 4 4 1 5 6 1 3 2 2 4 4 2 5 2 1 -1 1 3 2 5 5 4 5 2 2 1 -1 -0 1 -0 -1 -0 -1 -0 -1 -2 -3 -1 -0 -1 -1 -1
-3 -2 -0 -3 1 -2 -0 3 -6 1 -5 3 5 -1 -1 -2 -3 3 2 -1 3 1 0 -1 -0 0 1 3 2 4 5 2 1 -1 1 1 1 1 0 0 -1 -1 -2 -1 -3 -4 -3 -2 -1
1 -4 1 -3 -0 -1 -1 -2 -1 -3 2 3 11 6 -4 -1 -2 -4 1 2 2 -3 -2 1 2 2 3 3 0 2 3 1 2 -0 0 1 -0 1 0 -0 -0 -3 -1 -0 -0 -1 -3 -3 -2
-0 -1 -0 -2 -1 1 3 3 -0 2 -1 3 1 1 1 -2 -5 -1 0 -2 -1 -1 -0 4 6 4 4 3 2 0 1 2 2 -1 -1 -1 2 -1 -1 -1 -2 -1 -3 -3 -1 0 1 -0 -2
-0 -2 -2 -2 3 5 7 -1 -1 1 3 3 7 -3 -5 -0 1 -3 -5 -1 -1 -0 2 4 -1 3 4 8 5 5 3 1 3 0 -0 -3 -3 1 0 -1 -3 -1 -1 1 0 -0 -1 1 1
4 -1 -3 1 4 5 -1 -3 -3 -2 -2 3 -2 -3 -0 -1 -1 -1 1 -1 0 -5 1 3 4 -1 3 -1 3 3 3 3 2 0 -3 -1 -2 -1 -0 1 1 -3 -1 -2 -0 3 3 1 1
4 -1 -4 -4 3 5 1 3 -0 -2 -1 -1 3 3 -1 1 -3 -5 -4 1 3 3 -3 -0 4 9 4 3 -0 4 1 2 3 3 0 -3 -2 -4 0 2 3 3 -1 -1 1 -0 0 3 -0
2 -3 -3 -6 1 3 2 -3 5 3 -5 -6 3 7 0 4 -1 -1 -0 -3 4 7 5 -3 -2 -0 5 1 4 2 3 1 -1 3 7 4 4 7 -1 1 0 -0 2 1 1 3 3 1 4
-1 1 -1 1 -1 -1 4 -4 1 -2 -4 -1 0 11 4 -0 0 -6 -2 -10 0 6 7 -3 -1 -5 -1 3 -1 -2 1 3 6 4 5 6 8 8 9 1 -4 -4 -2 -0 -0 2 3 3 0
-3 -1 4 -1 -10 -5 0 4 -0 6 -11 6 -1 -2 4 -0 4 3 -2 -4 -5 -3 0 4 -1 2 -5 0 2 1 -0 4 4 3 4 3 -1 -1 1 5 3 4 2 -1 -2 -2 1 5 4
-4 2 -3 -2 3 -3 -5 -2 5 2 -1 10 -0 2 2 7 9 2 1 -1 -1 2 -4 -4 -4 -2 1 1 4 -0 -4 2 6 12 8 3 2 4 3 2 6 3 -5 -1 -1 2 3 2 3
0 5 -3 -4 -3 1 -2 -4 -2 -11 11 5 10 6 -0 -6 -4 -0 2 1 1 0 1 -1 -3 -1 1 1 8 -3 2 -3 14 10 13 7 5 3 2 4 7 6 5 -1 3 -3 2 2 5
2 -3 0 -4 -4 -0 -3 1 2 -2 11 6 2 1 -1 2 -1 -5 -6 -1 -0 0 -2 -4 -8 1 -2 1 3 4 6 5 7 4 -4 -1 9 2 8 6 7 6 3 10 6 7 3 4 2
2 0 -2 -3 2 -10 -1 -6 -3 3 4 -1 -2 4 -3 1 0 -1 0 -2 5 -2 1 -1 3 -5 -2 5 2 4 8 16 -6 -24 1 9 8 2 3 3 7 14 11 10 4 4 -1 2 6
-2 5 -6 -4 -3 -4 4 2 -4 -3 -0 -1 -1 -5 -6 -4 -1 -7 4 -2 -2 2 2 -2 2 -1 -3 -1 3 5 1 5 5 5 47 -29 8 -3 6 -5 16 -2 5 14 13 10 0 -2 -3
-1 -1 0 -5 -10 -6 8 14 3 -2 -7 -6 -9 -7 -2 -11 -11 -4 -3 2 3 -1 -5 -0 -3 3 -1 -7 -2 -3 2 4 4 3 1 3 -3 -9 -26 -11 -3 -4 2 -5 9 14 -2 -2 1
1 3 2 -1 -13 -4 -4 -3 -10 -3 2 -10 -2 4 -2 -1 -8 -1 5 8 1 0 6 3 3 1 0 4 -3 2 -0 -4 -3 -2 0 0 -1 5 7 19 8 4 -45 3 0 -0 16 -1 2
4 2 2 -7 -5 -1 -9 -4 -2 3 -7 -2 -1 18 -10 -3 -2 -2 4 1 8 6 6 4 -1 1 1 3 2 -2 6 -0 -6 -4 -5 -8 -7 3 -3 15 -8 -23 9 25 7 3 8 3 -8
-2 3 -7 -4 -5 6 -7 -10 2 7 -7 -4 -5 14 -8 -11 -4 4 4 9 3 2 1 3 4 6 4 4 -0 -2 2 6 -1 2 -0 -4 0 -6 -6 0 -5 -13 -8 -21 -20 11 -15 6 5
1 1 -3 9 -0 0 -4 -15 -19 23 8 -0 -3 0 0 5 -2 -4 -3 -2 9 7 8 6 5 5 4 6 0 -2 -1 -2 -1 1 4 4 -3 -4 -5 3 -3 1 7 21 16 10 4 11 -8
1 -8 5 9 4 -1 5 -29 -8 -1 -3 -8 -5 1 1 1 1 3 7 5 4 -6 -4 6 1 1 1 4 7 1 -1 2 1 -1 5 5 4 -4 2 2 -0 3 -3 4 9 1 3 33 -9
-16 3 -1 3 7 -1 20 5 -20 -7 -6 -2 -1 -2 1 6 1 2 5 8 7 6 9 -0 -1 1 4 0 -3 4 -4 1 -2 -1 -1 3 4 -2 -5 -2 0 -1 -1 -5 -4 -0 3 -2 -2
10 -1 6 4 3 3 -10 1 -9 -2 -6 -3 -3 -3 -5 -1 5 2 2 5 7 10 5 1 6 2 5 2 -2 0 -2 -1 -3 -3 -2 -2 2 9 1 -12 -4 1 3 2 1 -0 0 4 1
8 4 -2 -2 0 -7 -0 4 -7 -4 -4 -2 -1 2 5 3 25 19 11 0 6 15 3 2 -8 -4 3 1 -7 7 -1 0 -0 1 1 0 1 0 7 2 -4 -4 -5 -2 -2 0 0 -0 6
-1 5 -4 -2 -1 -4 1 -7 -10 -4 -3 -2 1 0 -5 -12 -0 -2 -7 -11 10 0 -4 -3 -2 -1 2 3 0 -8 -6 -2 1 -0 -1 -2 -1 1 1 3 4 -2 -1 -1 1 1 4 5 -1
-4 -2 6 6 1 2 -3 -3 -3 -2 -2 -1 1 2 -1 -14 -23 -10 -4 3 -9 -17 -12 -13 -21 -10 5 -2 -8 -2 -2 -3 -4 -4 -4 -3 -2 -2 2 1 -0 2 0 -2 -4 -3 1 -4 3
-1 4 -3 -1 -2 0 -2 0 -7 -8 -3 0 -3 -4 -2 -3 -2 1 5 -8 -4 -2 6 1 -13 -3 -8 -12 -4 -11 -1 -1 -1 -1 -2 -2 -1 -2 1 4 1 4 0 -3 -5 0 2 -5 3
-0 -2 -1 3 0 -2 -0 -8 -7 -4 -7 -3 -4 -4 -4 -1 0 1 -3 -8 -1 -3 -6 -12 -1 12 4 -0 -5 -1 -1 0 -3 -4 -2 -2 0 -0 -1 -2 -1 -2 1 5 3 3 6 -1 6
3 5 2 3 -5 1 2 -17 -3 3 2 -2 -2 -3 4 -4 -5 -5 1 1 -1 -4 -0 -1 3 2 -9 -5 -6 -3 1 -3 -5 -2 -3 -3 -0 -2 -1 -2 0 -1 -3 -1 -4 -1 2 -1 1
Height
3143 3144 3143 3143 3147 3142 3141 3143 3141 3141 3142 3143 3143 3143 3143 3143 3144 3146 3142 3143 3144 3144 3145 3145 3146 3147 3148 3149 3151 3151 3151 3151 3151 3150 3149 3148 3147 3147 3146 3146 3145 3145 3145 3146 3147 3148 3148 3148 3149
3143 3142 3142 3142 3143 3143 3142 3140 3141 3139 3141 3142 3142 3141 3142 3142 3142 3142 3142 3142 3143 3144 3144 3145 3146 3146 3147 3148 3149 3150 3150 3150 3150 3150 3149 3148 3147 3147 3147 3146 3145 3145 3145 3145 3146 3146 3147 3147 3148
3141 3141 3142 3141 3139 3141 3142 3140 3139 3138 3138 3140 3141 3140 3140 3141 3142 3142 3142 3143 3143 3142 3143 3144 3144 3145 3145 3146 3147 3148 3149 3149 3149 3149 3149 3148 3148 3147 3146 3146 3145 3145 3144 3144 3144 3144 3144 3145 3146
3140 3141 3142 3138 3138 3141 3141 3141 3139 3136 3139 3139 3140 3139 3139 3139 3139 3140 3140 3141 3141 3142 3142 3142 3141 3142 3142 3143 3145 3146 3147 3148 3148 3148 3148 3148 3147 3147 3146 3146 3145 3144 3144 3143 3143 3143 3144 3144 3145
3138 3139 3138 3135 3135 3138 3140 3140 3139 3137 3138 3139 3138 3138 3137 3137 3137 3138 3138 3139 3139 3139 3139 3138 3138 3138 3139 3140 3141 3143 3144 3146 3146 3146 3147 3147 3146 3146 3145 3145 3144 3144 3143 3143 3143 3143 3143 3143 3143
3137 3136 3136 3133 3133 3135 3138 3138 3137 3136 3137 3137 3137 3136 3137 3136 3136 3135 3136 3136 3136 3136 3136 3136 3135 3135 3136 3137 3138 3139 3141 3143 3143 3144 3144 3145 3145 3145 3145 3144 3143 3143 3142 3142 3142 3142 3142 3143 3142
3134 3133 3133 3133 3131 3131 3134 3135 3135 3135 3135 3135 3135 3134 3135 3134 3133 3133 3132 3132 3132 3134 3134 3133 3132 3133 3133 3133 3134 3136 3138 3139 3140 3141 3141 3142 3143 3143 3143 3143 3143 3142 3141 3141 3141 3142 3142 3142 3142
3132 3131 3129 3132 3131 3130 3131 3132 3132 3132 3132 3133 3133 3131 3131 3130 3129 3129 3130 3129 3128 3128 3130 3131 3129 3129 3129 3130 3131 3133 3134 3136 3137 3138 3138 3139 3139 3140 3141 3141 3141 3141 3141 3140 3140 3139 3140 3140 3141
3129 3129 3126 3129 3130 3128 3128 3128 3129 3128 3127 3129 3130 3129 3128 3127 3126 3126 3126 3126 3126 3125 3124 3126 3127 3126 3125 3125 3126 3128 3130 3131 3133 3134 3135 3135 3136 3137 3138 3140 3140 3141 3141 3141 3140 3139 3138 3138 3138
3126 3123 3125 3126 3127 3125 3124 3123 3121 3123 3122 3125 3125 3126 3125 3124 3123 3121 3120 3121 3121 3120 3118 3120 3121 3122 3122 3122 3122 3123 3124 3127 3128 3129 3130 3132 3134 3135 3136 3137 3137 3138 3139 3139 3139 3139 3138 3136 3136
3121 3119 3122 3121 3122 3121 3117 3118 3118 3115 3118 3122 3122 3123 3123 3120 3119 3118 3117 3116 3115 3114 3114 3114 3115 3117 3117 3117 3117 3118 3119 3121 3123 3125 3127 3128 3130 3131 3132 3132 3133 3134 3135 3136 3137 3137 3136 3136 3134
3117 3116 3117 3117 3116 3114 3114 3113 3112 3114 3116 3116 3116 3116 3115 3114 3114 3112 3111 3111 3110 3109 3109 3109 3110 3110 3110 3111 3110 3111 3113 3114 3117 3120 3121 3123 3124 3125 3126 3127 3128 3129 3131 3132 3133 3133 3134 3133 3132
3112 3112 3112 3112 3112 3110 3109 3109 3109 3106 3112 3111 3110 3109 3107 3106 3105 3105 3104 3102 3100 3102 3103 3103 3103 3103 3103 3105 3106 3106 3106 3108 3111 3113 3116 3117 3118 3119 3121 3121 3122 3123 3123 3125 3126 3128 3129 3129 3129
3109 3107 3107 3106 3106 3107 3104 3102 3101 3105 3105 3103 3103 3102 3101 3099 3099 3098 3098 3093 3093 3093 3093 3095 3095 3097 3097 3098 3100 3101 3100 3100 3103 3105 3107 3107 3108 3111 3113 3114 3116 3116 3117 3119 3120 3122 3123 3124 3125
3103 3101 3101 3102 3103 3100 3099 3093 3098 3098 3099 3097 3096 3095 3096 3095 3093 3092 3091 3088 3086 3085 3087 3087 3087 3088 3091 3092 3094 3095 3096 3095 3093 3095 3098 3098 3099 3102 3104 3105 3108 3111 3111 3112 3114 3114 3116 3118 3119
3100 3099 3096 3097 3098 3098 3094 3083 3092 3094 3091 3090 3090 3090 3089 3089 3088 3086 3083 3081 3081 3082 3082 3082 3082 3080 3083 3086 3088 3089 3090 3090 3091 3091 3085 3082 3087 3094 3094 3098 3101 3104 3104 3106 3107 3108 3108 3111 3112
3096 3094 3095 3093 3094 3092 3089 3081 3086 3087 3086 3084 3084 3086 3085 3083 3083 3081 3078 3077 3077 3076 3076 3076 3077 3077 3077 3080 3081 3083 3084 3084 3085 3083 3084 3084 3083 3085 3089 3089 3093 3094 3093 3096 3100 3101 3102 3104 3105
3092 3092 3092 3092 3093 3090 3083 3072 3080 3082 3080 3080 3079 3079 3078 3076 3074 3071 3070 3071 3071 3071 3070 3072 3072 3073 3073 3073 3075 3078 3078 3077 3077 3077 3077 3075 3077 3078 3080 3079 3081 3071 3079 3086 3089 3093 3094 3096 3098
3087 3086 3086 3089 3090 3085 3078 3070 3075 3077 3076 3075 3073 3071 3068 3068 3067 3066 3064 3063 3063 3065 3066 3066 3068 3069 3069 3069 3069 3071 3072 3072 3070 3070 3069 3067 3068 3068 3069 3067 3068 3061 3054 3070 3077 3080 3084 3086 3088
3082 3081 3082 3083 3084 3083 3076 3065 3066 3071 3071 3070 3066 3065 3061 3061 3062 3061 3060 3059 3057 3058 3059 3059 3061 3062 3063 3063 3064 3066 3066 3066 3065 3062 3060 3060 3059 3058 3058 3055 3058 3056 3055 3058 3061 3068 3074 3076 3079
3078 3078 3076 3080 3079 3077 3074 3060 3059 3065 3064 3060 3059 3058 3056 3054 3053 3052 3051 3052 3052 3049 3050 3051 3053 3054 3056 3057 3057 3058 3058 3058 3057 3055 3052 3052 3051 3051 3050 3050 3051 3053 3053 3057 3051 3061 3055 3062 3066
3075 3077 3075 3074 3077 3071 3071 3062 3058 3057 3056 3054 3052 3051 3049 3049 3047 3046 3044 3044 3045 3048 3049 3047 3048 3047 3048 3049 3049 3050 3050 3049 3047 3046 3045 3043 3043 3044 3042 3042 3042 3044 3046 3048 3049 3052 3055 3051 3055
3072 3073 3072 3070 3069 3067 3065 3069 3053 3051 3050 3049 3047 3045 3045 3044 3041 3040 3039 3039 3039 3039 3039 3043 3043 3042 3042 3041 3040 3041 3039 3038 3037 3036 3035 3034 3033 3033 3034 3032 3032 3033 3035 3036 3038 3041 3045 3046 3046
3069 3068 3068 3066 3065 3063 3055 3062 3051 3047 3048 3045 3044 3042 3040 3039 3037 3036 3035 3035 3036 3035 3035 3035 3035 3034 3034 3032 3031 3031 3029 3028 3026 3024 3023 3022 3023 3023 3022 3022 3021 3021 3023 3025 3027 3027 3031 3034 3035
3063 3065 3065 3063 3062 3059 3055 3054 3049 3043 3044 3042 3041 3040 3039 3036 3033 3032 3030 3028 3028 3029 3030 3028 3030 3028 3026 3022 3023 3022 3020 3017 3014 3012 3010 3009 3009 3010 3010 3009 3010 3010 3011 3012 3014 3016 3017 3020 3022
3058 3059 3061 3059 3059 3054 3052 3049 3041 3040 3041 3040 3040 3038 3037 3036 3034 3032 3030 3029 3024 3022 3024 3023 3022 3022 3019 3017 3015 3012 3009 3007 3003 3001 2998 2996 2995 2995 2996 2995 2995 2996 2997 2999 3000 3001 3003 3005 3008
3055 3055 3055 3055 3055 3054 3047 3043 3040 3037 3037 3037 3036 3035 3034 3033 3032 3032 3030 3028 3025 3024 3024 3022 3018 3017 3010 3006 3005 3002 2998 2996 2993 2990 2987 2984 2982 2981 2981 2981 2980 2980 2982 2983 2985 2986 2987 2990 2993
3050 3052 3053 3054 3054 3049 3040 3037 3033 3032 3033 3033 3031 3033 3032 3029 3030 3029 3027 3027 3023 3021 3019 3016 3010 3005 3001 2998 2995 2992 2988 2984 2980 2977 2974 2971 2969 2968 2966 2967 2967 2967 2966 2967 2969 2971 2973 2975 2979
3045 3045 3047 3049 3048 3044 3040 3031 3029 3030 3029 3028 3028 3030 3029 3029 3028 3027 3025 3023 3020 3016 3012 3008 3002 2998 2994 2990 2986 2981 2977 2972 2968 2964 2960 2957 2955 2954 2953 2952 2952 2953 2953 2953 2953 2954 2957 2959 2963
3038 3038 3040 3042 3041 3037 3034 3025 3027 3025 3023 3025 3026 3026 3026 3026 3025 3023 3022 3020 3017 3013 3008 3003 2997 2991 2987 2982 2978 2972 2967 2962 2955 2951 2949 2946 2943 2941 2939 2938 2938 2938 2938 2939 2940 2941 2942 2944 2947